Weather History for Elmendorf AFB, AK

Change the Weather History Date:

Wednesday, January 2, 2013

  Actual Average Record
Temperature  
Mean Temperature 31 °F -  
Max Temperature 37 °F 19 °F 46 °F (1981)
Min Temperature 25 °F 4 °F -27 °F (1975)
Degree Days  
Heating Degree Days 34    
Moisture  
Dew Point 25 °F    
Average Humidity 73    
Maximum Humidity 92    
Minimum Humidity 57    
Precipitation  
Precipitation 0.00 in - - ()
Sea Level Pressure  
Sea Level Pressure 29.44 in    
Wind  
Wind Speed 6 mph (NNE)    
Max Wind Speed 13 mph    
Max Gust Speed -    
Visibility 10 miles    
Events      
Averages and records for this station are not official NWS values.
T = Trace of Precipitation, MM = Missing Value Source: NWS Daily Summary

Daily Weather History Graph

Daily Weather History Graph

Search for Another Location

Airport:

Trip Planner

Search our weather history database for the weather conditions in past years. The results will help you decide how hot, cold, wet, or windy it might be!

Date:

Astronomy

Jan. 02, 2013 Rise Set
Actual Time 10:12 AM AKST 3:54 PM AKST
Civil Twilight 9:12 AM AKST 4:55 PM AKST
Nautical Twilight 8:13 AM AKST 5:54 PM AKST
Astronomical Twilight 7:19 AM AKST 6:47 PM AKST
Moon 11:31 PM AKST (1/2) 11:14 AM AKST (1/2)
Length of Visible Light 7h 43m
Length of Day
5h 41m
Waning Gibbous, 74% of the Moon is Illuminated
Jan 2
Waning Gibbous
Jan 4
Last Quarter
Jan 11
New
Jan 18
First Quarter
Jan 26
Full

Hourly Weather History & Observations

Time (AKST) Temp. Windchill Dew Point Humidity Pressure Visibility Wind Dir Wind Speed Gust Speed Precip Events Conditions
12:55 AM 36.9 °F 33.1 °F 23.5 °F 59% 29.28 in 10.0 mi NE 4.6 mph - N/A   Scattered Clouds
1:55 AM 37.6 °F 32.3 °F 23.5 °F 57% 29.30 in 10.0 mi North 6.9 mph - N/A   Partly Cloudy
2:55 AM 36.3 °F 32.5 °F 24.8 °F 63% 29.33 in 10.0 mi West 4.6 mph - N/A   Mostly Cloudy
3:55 AM 33.4 °F 27.3 °F 25.5 °F 73% 29.35 in 10.0 mi NNE 6.9 mph - N/A   Mostly Cloudy
4:55 AM 35.8 °F 28.3 °F 25.7 °F 67% 29.36 in 10.0 mi NNE 10.4 mph - N/A   Clear
5:55 AM 34.7 °F - 24.1 °F 65% 29.38 in 10.0 mi Calm Calm - N/A   Clear
6:55 AM 36.7 °F - 24.1 °F 60% 29.38 in 10.0 mi Calm Calm - N/A   Mostly Cloudy
7:55 AM 35.8 °F 30.9 °F 23.0 °F 60% 29.39 in 10.0 mi NNW 5.8 mph - N/A   Partly Cloudy
8:55 AM 35.2 °F 28.1 °F 25.2 °F 67% 29.41 in 10.0 mi North 9.2 mph - N/A   Scattered Clouds
9:55 AM 36.5 °F 28.7 °F 24.1 °F 61% 29.43 in 10.0 mi NNE 11.5 mph - N/A   Partly Cloudy
10:55 AM 34.9 °F 28.3 °F 25.3 °F 68% 29.46 in 10.0 mi NNE 8.1 mph - N/A   Scattered Clouds
11:55 AM 35.8 °F 27.3 °F 25.5 °F 66% 29.46 in 10.0 mi NNE 12.7 mph - N/A   Mostly Cloudy
12:55 PM 35.2 °F 29.5 °F 26.8 °F 71% 29.48 in 10.0 mi NNE 6.9 mph - N/A   Clear
1:55 PM 33.3 °F 28.9 °F 26.6 °F 77% 29.48 in 10.0 mi ENE 4.6 mph - N/A   Mostly Cloudy
2:55 PM 33.8 °F - 26.4 °F 74% 29.48 in 10.0 mi Calm Calm - N/A   Overcast
3:55 PM 33.1 °F 30.0 °F 26.1 °F 75% 29.49 in 10.0 mi Variable 3.5 mph - N/A   Partly Cloudy
4:55 PM 31.8 °F 27.3 °F 27.0 °F 82% 29.49 in 10.0 mi Variable 4.6 mph - N/A   Mostly Cloudy
5:55 PM 29.3 °F 21.5 °F 25.2 °F 85% 29.50 in 10.0 mi West 8.1 mph - N/A   Mostly Cloudy
6:55 PM 30.4 °F 26.9 °F 26.8 °F 86% 29.51 in 10.0 mi Variable 3.5 mph - N/A   Clear
7:55 PM 25.5 °F 17.8 °F 22.8 °F 89% 29.51 in 10.0 mi East 6.9 mph - N/A   Partly Cloudy
8:55 PM 25.9 °F 18.2 °F 23.5 °F 91% 29.53 in 10.0 mi West 6.9 mph - N/A   Scattered Clouds
9:55 PM 26.2 °F - 24.1 °F 92% 29.54 in 10.0 mi Calm Calm - N/A   Scattered Clouds
10:55 PM 32.2 °F 25.8 °F 26.4 °F 79% 29.54 in 10.0 mi Variable 6.9 mph - N/A   Partly Cloudy
11:55 PM 31.6 °F 23.7 °F 27.0 °F 83% 29.54 in 10.0 mi ENE 9.2 mph - N/A   Mostly Cloudy